Time,TemperatureF,DewpointF,PressureIn,WindDirection,WindDirectionDegrees,WindSpeedMPH,WindSpeedGustMPH,Humidity,HourlyPrecipIn,Conditions,Clouds,dailyrainin,SoftwareType,DateUTC
2013-03-02 00:02:00,35.0,26.0,-100.00,NNE,25,2.0,6.0,69,0.00,,,-99.99,,2013-03-02 05:02:00,
2013-03-02 00:12:00,35.0,26.0,-100.00,North,0,1.0,4.0,69,0.00,,,-99.99,,2013-03-02 05:12:00,
2013-03-02 00:22:00,35.0,26.0,-100.00,North,0,4.0,9.0,69,0.00,,,-99.99,,2013-03-02 05:22:00,
2013-03-02 00:32:00,35.0,26.0,-100.00,North,355,5.0,9.0,68,0.00,,,-99.99,,2013-03-02 05:32:00,
2013-03-02 00:42:00,35.0,26.0,-100.00,East,90,2.0,9.0,69,0.00,,,-99.99,,2013-03-02 05:42:00,
2013-03-02 00:52:00,35.0,26.0,-100.00,NNW,345,2.0,7.0,69,0.00,,,-99.99,,2013-03-02 05:52:00,
2013-03-02 01:02:00,35.0,26.0,-100.00,NNW,340,3.0,9.0,69,0.00,,,-99.99,,2013-03-02 06:02:00,
2013-03-02 01:11:00,35.0,26.0,-100.00,North,0,3.0,7.0,70,0.00,,,-99.99,,2013-03-02 06:11:00,
2013-03-02 01:22:00,35.0,26.0,-100.00,North,350,1.0,7.0,69,0.00,,,-99.99,,2013-03-02 06:22:00,
2013-03-02 01:32:00,35.0,26.0,-100.00,NE,55,1.0,6.0,70,0.00,,,-99.99,,2013-03-02 06:32:00,
2013-03-02 01:42:00,34.0,26.0,-100.00,North,0,2.0,6.0,70,0.00,,,-99.99,,2013-03-02 06:42:00,
2013-03-02 01:52:00,34.0,26.0,-100.00,NW,325,2.0,6.0,70,0.00,,,-99.99,,2013-03-02 06:52:00,
2013-03-02 02:02:00,34.0,26.0,-100.00,North,355,2.0,8.0,70,0.00,,,-99.99,,2013-03-02 07:02:00,
2013-03-02 02:11:00,34.0,26.0,-100.00,NNW,335,3.0,6.0,70,0.00,,,-99.99,,2013-03-02 07:11:00,
2013-03-02 02:22:00,34.0,26.0,-100.00,NNW,330,2.0,9.0,70,0.00,,,-99.99,,2013-03-02 07:22:00,
2013-03-02 02:32:00,34.0,25.0,-100.00,NNW,330,5.0,8.0,70,0.00,,,-99.99,,2013-03-02 07:32:00,
2013-03-02 02:42:00,34.0,26.0,-100.00,NNW,340,3.0,7.0,70,0.00,,,-99.99,,2013-03-02 07:42:00,
2013-03-02 02:51:00,34.0,25.0,-100.00,NNW,335,2.0,7.0,70,0.00,,,-99.99,,2013-03-02 07:51:00,
2013-03-02 03:01:00,34.0,26.0,-100.00,NNW,345,3.0,7.0,70,0.00,,,-99.99,,2013-03-02 08:01:00,
2013-03-02 03:11:00,33.0,25.0,-100.00,NNW,340,3.0,7.0,71,0.00,,,-99.99,,2013-03-02 08:11:00,
2013-03-02 03:22:00,33.0,25.0,-100.00,North,0,1.0,6.0,71,0.00,,,-99.99,,2013-03-02 08:22:00,
2013-03-02 03:32:00,33.0,25.0,-100.00,NNW,340,4.0,7.0,71,0.00,,,-99.99,,2013-03-02 08:32:00,
2013-03-02 03:42:00,33.0,25.0,-100.00,NW,325,2.0,7.0,71,0.00,,,-99.99,,2013-03-02 08:42:00,
2013-03-02 03:52:00,33.0,25.0,-100.00,NW,325,2.0,6.0,72,0.00,,,-99.99,,2013-03-02 08:52:00,
2013-03-02 04:02:00,33.0,25.0,-100.00,NNW,335,3.0,6.0,72,0.00,,,-99.99,,2013-03-02 09:02:00,
2013-03-02 04:11:00,33.0,25.0,-100.00,NW,315,4.0,6.0,72,0.00,,,-99.99,,2013-03-02 09:11:00,
2013-03-02 04:22:00,33.0,25.0,-100.00,NW,325,4.0,5.0,72,0.00,,,-99.99,,2013-03-02 09:22:00,
2013-03-02 04:32:00,32.0,25.0,-100.00,North,350,2.0,6.0,73,0.00,,,-99.99,,2013-03-02 09:32:00,
2013-03-02 04:42:00,32.0,25.0,-100.00,NNW,330,3.0,7.0,73,0.00,,,-99.99,,2013-03-02 09:42:00,
2013-03-02 04:52:00,32.0,25.0,-100.00,NNW,330,4.0,6.0,73,0.00,,,-99.99,,2013-03-02 09:52:00,
2013-03-02 05:01:00,32.0,24.0,-100.00,NW,305,2.0,6.0,73,0.00,,,-99.99,,2013-03-02 10:01:00,
2013-03-02 05:16:00,32.0,24.0,-100.00,NNW,330,2.0,5.0,73,0.00,,,-99.99,,2013-03-02 10:16:00,
2013-03-02 05:22:00,31.0,24.0,-100.00,NNW,335,1.0,4.0,73,0.00,,,-99.99,,2013-03-02 10:22:00,
2013-03-02 05:32:00,31.0,24.0,-100.00,NNW,345,1.0,4.0,74,0.00,,,-99.99,,2013-03-02 10:32:00,
2013-03-02 05:43:00,31.0,24.0,-100.00,NNW,335,4.0,5.0,74,0.00,,,-99.99,,2013-03-02 10:43:00,
2013-03-02 05:52:00,31.0,24.0,-100.00,North,350,1.0,4.0,74,0.00,,,-99.99,,2013-03-02 10:52:00,
2013-03-02 06:01:00,31.0,24.0,-100.00,NNW,330,2.0,4.0,75,0.00,,,-99.99,,2013-03-02 11:01:00,
2013-03-02 06:11:00,31.0,24.0,-100.00,NNW,330,3.0,6.0,75,0.00,,,-99.99,,2013-03-02 11:11:00,
2013-03-02 06:22:00,31.0,24.0,-100.00,NW,310,2.0,6.0,75,0.00,,,-99.99,,2013-03-02 11:22:00,
2013-03-02 06:32:00,31.0,24.0,-100.00,NW,315,1.0,4.0,75,0.00,,,-99.99,,2013-03-02 11:32:00,
2013-03-02 06:42:00,30.0,23.0,-100.00,ESE,120,1.0,2.0,75,0.00,,,-99.99,,2013-03-02 11:42:00,
2013-03-02 06:52:00,30.0,23.0,-100.00,West,260,1.0,4.0,76,0.00,,,-99.99,,2013-03-02 11:52:00,
2013-03-02 07:02:00,30.0,23.0,-100.00,North,350,1.0,4.0,76,0.00,,,-99.99,,2013-03-02 12:02:00,
2013-03-02 07:11:00,31.0,24.0,-100.00,NW,310,2.0,5.0,76,0.00,,,-99.99,,2013-03-02 12:11:00,
2013-03-02 07:22:00,31.0,24.0,-100.00,NW,325,2.0,5.0,75,0.00,,,-99.99,,2013-03-02 12:22:00,
2013-03-02 07:33:00,31.0,25.0,-100.00,NW,325,2.0,6.0,75,0.00,,,-99.99,,2013-03-02 12:33:00,
2013-03-02 07:43:00,32.0,25.0,-100.00,NNW,335,3.0,7.0,74,0.00,,,-99.99,,2013-03-02 12:43:00,
2013-03-02 07:53:00,32.0,25.0,-100.00,NW,325,4.0,7.0,73,0.00,,,-99.99,,2013-03-02 12:53:00,
2013-03-02 08:02:00,33.0,26.0,-100.00,NNW,345,4.0,7.0,73,0.00,,,-99.99,,2013-03-02 13:02:00,
2013-03-02 08:11:00,34.0,26.0,-100.00,NW,320,2.0,9.0,72,0.00,,,-99.99,,2013-03-02 13:11:00,
2013-03-02 08:22:00,34.0,25.0,-100.00,NNW,330,4.0,10.0,69,0.00,,,-99.99,,2013-03-02 13:22:00,
2013-03-02 08:32:00,35.0,25.0,-100.00,North,5,2.0,5.0,68,0.00,,,-99.99,,2013-03-02 13:32:00,
2013-03-02 08:42:00,35.0,25.0,-100.00,NW,325,3.0,9.0,66,0.00,,,-99.99,,2013-03-02 13:42:00,
2013-03-02 08:52:00,36.0,25.0,-100.00,NE,45,4.0,9.0,64,0.00,,,-99.99,,2013-03-02 13:52:00,
2013-03-02 09:01:00,36.0,25.0,-100.00,North,0,3.0,7.0,63,0.00,,,-99.99,,2013-03-02 14:01:00,
2013-03-02 09:11:00,36.0,25.0,-100.00,NE,55,6.0,12.0,63,0.00,,,-99.99,,2013-03-02 14:11:00,
2013-03-02 09:22:00,37.0,25.0,-100.00,North,10,3.0,11.0,61,0.00,,,-99.99,,2013-03-02 14:22:00,
2013-03-02 09:32:00,37.0,25.0,-100.00,ENE,60,6.0,10.0,60,0.00,,,-99.99,,2013-03-02 14:32:00,
2013-03-02 09:42:00,37.0,25.0,-100.00,ENE,60,3.0,10.0,60,0.00,,,-99.99,,2013-03-02 14:42:00,
2013-03-02 09:52:00,38.0,25.0,-100.00,North,0,1.0,10.0,59,0.00,,,-99.99,,2013-03-02 14:52:00,
2013-03-02 10:02:00,38.0,25.0,-100.00,ENE,60,2.0,6.0,58,0.00,,,-99.99,,2013-03-02 15:02:00,
2013-03-02 10:11:00,38.0,25.0,-100.00,East,90,2.0,10.0,58,0.00,,,-99.99,,2013-03-02 15:11:00,
2013-03-02 10:22:00,38.0,25.0,-100.00,North,0,1.0,7.0,59,0.00,,,-99.99,,2013-03-02 15:22:00,
2013-03-02 10:32:00,39.0,25.0,-100.00,North,5,1.0,5.0,58,0.00,,,-99.99,,2013-03-02 15:32:00,
2013-03-02 10:42:00,39.0,26.0,-100.00,North,350,2.0,6.0,58,0.00,,,-99.99,,2013-03-02 15:42:00,
2013-03-02 10:52:00,39.0,25.0,-100.00,East,80,1.0,7.0,57,0.00,,,-99.99,,2013-03-02 15:52:00,
2013-03-02 11:02:00,39.0,26.0,-100.00,NNW,345,5.0,9.0,58,0.00,,,-99.99,,2013-03-02 16:02:00,
2013-03-02 11:11:00,39.0,26.0,-100.00,SSW,200,2.0,7.0,58,0.00,,,-99.99,,2013-03-02 16:11:00,
2013-03-02 11:22:00,39.0,26.0,-100.00,NNW,340,5.0,9.0,58,0.00,,,-99.99,,2013-03-02 16:22:00,
2013-03-02 11:32:00,39.0,26.0,-100.00,NW,320,4.0,7.0,59,0.00,,,-99.99,,2013-03-02 16:32:00,
2013-03-02 11:42:00,39.0,26.0,-100.00,ENE,70,3.0,9.0,59,0.00,,,-99.99,,2013-03-02 16:42:00,
2013-03-02 11:52:00,39.0,27.0,-100.00,ENE,75,2.0,9.0,61,0.00,,,-99.99,,2013-03-02 16:52:00,
2013-03-02 12:01:00,40.0,27.0,-100.00,NNW,335,3.0,7.0,59,0.00,,,-99.99,,2013-03-02 17:01:00,
2013-03-02 12:12:00,40.0,27.0,-100.00,North,0,1.0,8.0,59,0.00,,,-99.99,,2013-03-02 17:12:00,
2013-03-02 12:22:00,41.0,27.0,-100.00,ENE,70,1.0,7.0,55,0.00,,,-99.99,,2013-03-02 17:22:00,
2013-03-02 12:32:00,41.0,26.0,-100.00,East,90,1.0,7.0,56,0.00,,,-99.99,,2013-03-02 17:32:00,
2013-03-02 12:42:00,40.0,27.0,-100.00,North,10,2.0,4.0,58,0.00,,,-99.99,,2013-03-02 17:42:00,
2013-03-02 12:52:00,41.0,27.0,-100.00,ENE,65,3.0,6.0,56,0.00,,,-99.99,,2013-03-02 17:52:00,
2013-03-02 13:02:00,40.0,27.0,-100.00,NW,325,6.0,12.0,58,0.00,,,-99.99,,2013-03-02 18:02:00,
2013-03-02 13:12:00,41.0,27.0,-100.00,NNW,335,5.0,8.0,56,0.00,,,-99.99,,2013-03-02 18:12:00,
2013-03-02 13:22:00,41.0,27.0,-100.00,NNW,340,4.0,7.0,56,0.00,,,-99.99,,2013-03-02 18:22:00,
2013-03-02 13:32:00,42.0,27.0,-100.00,North,350,2.0,8.0,55,0.00,,,-99.99,,2013-03-02 18:32:00,
2013-03-02 13:42:00,41.0,27.0,-100.00,NNW,340,2.0,9.0,56,0.00,,,-99.99,,2013-03-02 18:42:00,
2013-03-02 13:52:00,41.0,27.0,-100.00,NW,325,4.0,7.0,55,0.00,,,-99.99,,2013-03-02 18:52:00,
2013-03-02 14:02:00,41.0,27.0,-100.00,NW,305,3.0,7.0,55,0.00,,,-99.99,,2013-03-02 19:02:00,
2013-03-02 14:12:00,41.0,27.0,-100.00,NW,315,4.0,9.0,55,0.00,,,-99.99,,2013-03-02 19:12:00,
2013-03-02 14:22:00,42.0,26.0,-100.00,NW,325,5.0,9.0,54,0.00,,,-99.99,,2013-03-02 19:22:00,
2013-03-02 14:32:00,42.0,26.0,-100.00,NNW,335,4.0,10.0,53,0.00,,,-99.99,,2013-03-02 19:32:00,
2013-03-02 14:42:00,42.0,26.0,-100.00,NNE,20,1.0,7.0,52,0.00,,,-99.99,,2013-03-02 19:42:00,
2013-03-02 14:52:00,42.0,26.0,-100.00,NNE,20,2.0,7.0,54,0.00,,,-99.99,,2013-03-02 19:52:00,
2013-03-02 15:02:00,42.0,27.0,-100.00,NW,320,2.0,7.0,53,0.00,,,-99.99,,2013-03-02 20:02:00,
2013-03-02 15:11:00,42.0,26.0,-100.00,NNW,340,3.0,7.0,53,0.00,,,-99.99,,2013-03-02 20:11:00,
2013-03-02 15:22:00,42.0,26.0,-100.00,WSW,255,3.0,9.0,52,0.00,,,-99.99,,2013-03-02 20:22:00,
2013-03-02 15:32:00,42.0,26.0,-100.00,NNW,340,4.0,9.0,52,0.00,,,-99.99,,2013-03-02 20:32:00,
2013-03-02 15:42:00,42.0,26.0,-100.00,NW,310,4.0,10.0,52,0.00,,,-99.99,,2013-03-02 20:42:00,
2013-03-02 15:52:00,42.0,25.0,-100.00,NNW,330,7.0,11.0,51,0.00,,,-99.99,,2013-03-02 20:52:00,
2013-03-02 16:02:00,42.0,25.0,-100.00,NW,315,7.0,11.0,51,0.00,,,-99.99,,2013-03-02 21:02:00,
2013-03-02 16:12:00,42.0,25.0,-100.00,NNW,330,6.0,12.0,51,0.00,,,-99.99,,2013-03-02 21:12:00,
2013-03-02 16:22:00,42.0,26.0,-100.00,NNW,330,5.0,13.0,52,0.00,,,-99.99,,2013-03-02 21:22:00,
2013-03-02 16:32:00,41.0,25.0,-100.00,NNW,335,9.0,13.0,53,0.00,,,-99.99,,2013-03-02 21:32:00,
2013-03-02 16:42:00,41.0,26.0,-100.00,NNW,340,4.0,9.0,53,0.00,,,-99.99,,2013-03-02 21:42:00,
2013-03-02 16:52:00,41.0,26.0,-100.00,NNW,330,7.0,12.0,53,0.00,,,-99.99,,2013-03-02 21:52:00,
2013-03-02 17:02:00,41.0,26.0,-100.00,NNW,330,4.0,10.0,53,0.00,,,-99.99,,2013-03-02 22:02:00,
2013-03-02 17:12:00,41.0,26.0,-100.00,NNW,340,4.0,10.0,54,0.00,,,-99.99,,2013-03-02 22:12:00,
2013-03-02 17:22:00,40.0,25.0,-100.00,NNW,345,4.0,9.0,55,0.00,,,-99.99,,2013-03-02 22:22:00,
2013-03-02 17:32:00,40.0,25.0,-100.00,NNW,335,9.0,14.0,54,0.00,,,-99.99,,2013-03-02 22:32:00,
2013-03-02 17:42:00,40.0,25.0,-100.00,NW,325,4.0,11.0,54,0.00,,,-99.99,,2013-03-02 22:42:00,
2013-03-02 17:52:00,40.0,25.0,-100.00,North,0,5.0,12.0,55,0.00,,,-99.99,,2013-03-02 22:52:00,
2013-03-02 18:02:00,40.0,25.0,-100.00,North,0,3.0,14.0,55,0.00,,,-99.99,,2013-03-02 23:02:00,
2013-03-02 18:11:00,39.0,25.0,-100.00,NNW,340,4.0,9.0,55,0.00,,,-99.99,,2013-03-02 23:11:00,
2013-03-02 18:22:00,39.0,25.0,-100.00,NNW,340,5.0,9.0,55,0.00,,,-99.99,,2013-03-02 23:22:00,
2013-03-02 18:32:00,39.0,25.0,-100.00,North,350,2.0,6.0,56,0.00,,,-99.99,,2013-03-02 23:32:00,
2013-03-02 18:42:00,38.0,25.0,-100.00,ENE,65,1.0,6.0,57,0.00,,,-99.99,,2013-03-02 23:42:00,
2013-03-02 18:52:00,38.0,25.0,-100.00,North,5,2.0,4.0,57,0.00,,,-99.99,,2013-03-02 23:52:00,
2013-03-02 19:02:00,38.0,24.0,-100.00,North,5,1.0,7.0,56,0.00,,,-99.99,,2013-03-03 00:02:00,
2013-03-02 19:11:00,38.0,24.0,-100.00,North,0,2.0,12.0,56,0.00,,,-99.99,,2013-03-03 00:11:00,
2013-03-02 19:22:00,38.0,23.0,-100.00,North,0,3.0,7.0,55,0.00,,,-99.99,,2013-03-03 00:22:00,
2013-03-02 19:32:00,38.0,23.0,-100.00,North,5,4.0,9.0,55,0.00,,,-99.99,,2013-03-03 00:32:00,
2013-03-02 19:42:00,37.0,23.0,-100.00,NNW,340,5.0,11.0,56,0.00,,,-99.99,,2013-03-03 00:42:00,
2013-03-02 19:52:00,37.0,23.0,-100.00,North,5,3.0,9.0,56,0.00,,,-99.99,,2013-03-03 00:52:00,
2013-03-02 20:01:00,37.0,23.0,-100.00,NNE,15,2.0,8.0,57,0.00,,,-99.99,,2013-03-03 01:01:00,
2013-03-02 20:11:00,37.0,23.0,-100.00,NNE,15,2.0,11.0,58,0.00,,,-99.99,,2013-03-03 01:11:00,
2013-03-02 20:21:00,37.0,23.0,-100.00,North,5,2.0,9.0,58,0.00,,,-99.99,,2013-03-03 01:21:00,
2013-03-02 20:32:00,37.0,23.0,-100.00,NNW,335,4.0,8.0,58,0.00,,,-99.99,,2013-03-03 01:32:00,
2013-03-02 20:42:00,36.0,24.0,-100.00,North,350,1.0,6.0,59,0.00,,,-99.99,,2013-03-03 01:42:00,
2013-03-02 20:52:00,36.0,24.0,-100.00,North,350,1.0,8.0,59,0.00,,,-99.99,,2013-03-03 01:52:00,
2013-03-02 21:01:00,36.0,24.0,-100.00,North,10,2.0,6.0,60,0.00,,,-99.99,,2013-03-03 02:01:00,
2013-03-02 21:11:00,36.0,24.0,-100.00,NE,45,2.0,7.0,61,0.00,,,-99.99,,2013-03-03 02:11:00,
2013-03-02 21:22:00,36.0,24.0,-100.00,North,10,2.0,7.0,61,0.00,,,-99.99,,2013-03-03 02:22:00,
2013-03-02 21:32:00,36.0,24.0,-100.00,NE,45,2.0,7.0,61,0.00,,,-99.99,,2013-03-03 02:32:00,
2013-03-02 21:42:00,35.0,24.0,-100.00,North,355,2.0,7.0,62,0.00,,,-99.99,,2013-03-03 02:42:00,
2013-03-02 21:52:00,35.0,24.0,-100.00,NE,35,2.0,7.0,62,0.00,,,-99.99,,2013-03-03 02:52:00,
2013-03-02 22:02:00,35.0,24.0,-100.00,East,85,1.0,7.0,63,0.00,,,-99.99,,2013-03-03 03:02:00,
2013-03-02 22:11:00,35.0,24.0,-100.00,ENE,70,2.0,5.0,63,0.00,,,-99.99,,2013-03-03 03:11:00,
2013-03-02 22:22:00,35.0,24.0,-100.00,NNE,15,4.0,7.0,63,0.00,,,-99.99,,2013-03-03 03:22:00,
2013-03-02 22:32:00,35.0,24.0,-100.00,ENE,60,2.0,6.0,64,0.00,,,-99.99,,2013-03-03 03:32:00,
2013-03-02 22:42:00,35.0,24.0,-100.00,North,10,1.0,6.0,64,0.00,,,-99.99,,2013-03-03 03:42:00,
2013-03-02 22:52:00,35.0,24.0,-100.00,NNW,340,2.0,6.0,64,0.00,,,-99.99,,2013-03-03 03:52:00,
2013-03-02 23:01:00,34.0,24.0,-100.00,ENE,70,3.0,9.0,64,0.00,,,-99.99,,2013-03-03 04:01:00,
2013-03-02 23:11:00,34.0,24.0,-100.00,North,5,4.0,7.0,64,0.00,,,-99.99,,2013-03-03 04:11:00,
2013-03-02 23:22:00,34.0,24.0,-100.00,North,0,2.0,6.0,65,0.00,,,-99.99,,2013-03-03 04:22:00,
2013-03-02 23:32:00,34.0,24.0,-100.00,NNW,340,4.0,7.0,65,0.00,,,-99.99,,2013-03-03 04:32:00,
2013-03-02 23:42:00,34.0,24.0,-100.00,NW,320,2.0,9.0,66,0.00,,,-99.99,,2013-03-03 04:42:00,
2013-03-02 23:52:00,34.0,24.0,-100.00,North,5,2.0,7.0,66,0.00,,,-99.99,,2013-03-03 04:52:00,